Regional Weather Roundup
Issued by NWS Kansas City/Pleasant Hill, MO

Home | Current Version | Previous Version | Graphics & Text | Print | Product List | Glossary Off
Versions: 1 2 3 4 5 6 7 8 9 10 11 12 13 14 15 16 17 18 19 20 21 22 23 24 25 26 27 28 29 30 31 32 33 34 35 36 37 38 39 40 41 42 43 44 45 46 47 48 49 50

167
ASUS43 KEAX 090210
RWREAX

WEATHER ROUNDUP FOR EASTERN KANSAS AND NORTHWEST MISSOURI
NATIONAL WEATHER SERVICE KANSAS CITY/PLEASANT HILL MO
800 PM CST MON FEB 08 2016

KSZ040-057-103>105-MOZ028-029-037-043-090300-
...KANSAS CITY METROPOLITAN AREA...

CITY           SKY/WX    TMP DP  RH WIND       PRES   REMARKS
K.C. INTL      CLEAR     28  16  60 N16G23    30.09S WCI  16
K.C. DOWNTOWN  PTCLDY    31  15  52 N10G21    30.10R WCI  22
LEES SUMMIT    MOCLDY    29  14  53 NW14      30.08S WCI  18
OLATHE - IXD   CLEAR     29  15  56 NW12      30.11S WCI  19
OLATHE - OJC   CLEAR     29  14  53 NW13      30.09S WCI  19
LAWRENCE       CLEAR     29  15  56 NW9       30.13S WCI  20

$$

MOZ001>008-011>017-020>025-030>033-038>040-044>046-053-054-090300-
...NORTHERN AND CENTRAL MISSOURI...

CITY           SKY/WX    TMP DP  RH WIND       PRES   REMARKS
ST. JOSEPH     CLEAR     26  16  65 N10       30.11S WCI  16
MOSBY          MOCLDY    30  16  55 NW20G30   30.09S WCI  18
WARRENSBURG    CLOUDY    28  18  64 NW9       30.08S WCI  20
WHITEMAN AFB   FLURRIES  27  16  62 NW12      30.05  WCI  17
CLINTON          N/A     32  19  59 NW7       30.08F WCI  26
SEDALIA        CLOUDY    27  16  63 NW16G25   30.06F WCI  15
WARSAW         NOT AVBL
CHILLICOTHE      N/A     25  15  66 NW10G18   30.06F WCI  15
KIRKSVILLE     CLOUDY    18   9  68 NW15G23   30.00S WCI   4

$$

MOZ041-047>049-056>058-063>065-088>090-097-090300-
...EASTERN AND SOUTHERN MISSOURI...

CITY           SKY/WX    TMP DP  RH WIND       PRES   REMARKS
ST. LOUIS INTL NOT AVBL
SPIRIT OF STL  FLURRIES  25  13  60 NW17G24   29.96F WCI  12
COLUMBIA       CLOUDY    23  13  65 NW21G39   30.00S WCI   8
JEFFERSON CITY FLURRIES  25  15  66 NW15G25   30.03S WCI  13
ROLLA          CLOUDY    24  15  68 W15G24    29.96F WCI  11
OSAGE BEACH    CLOUDY    27  12  54 NW7G23    30.03F WCI  19
SPRINGFIELD    MOCLDY    31  15  52 NW15      30.03F WCI  20
BRANSON        PTCLDY    32  14  47 NW13G24   30.05S WCI  22
JOPLIN         CLEAR     31  15  52 NW10      30.13S WCI  22
WEST PLAINS    FLURRIES  29  20  69 NW18G26   29.99F WCI  16

$$

IAZ060-094-KSZ022-034>040-054-083-096-NEZ052-066-093-090300-
...KANSAS...SOUTHEAST NEBRASKA AND IOWA...

CITY           SKY/WX    TMP DP  RH WIND       PRES   REMARKS
TOPEKA         CLOUDY    33  16  49 NW9       30.12F WCI  25
MANHATTAN      MOCLDY    34  19  54 VRB6      30.17S WCI  29
EMPORIA        PTCLDY    34  17  50 NW14      30.15S WCI  25
CHANUTE        CLEAR     32  14  47 NW8       30.14F WCI  25
WICHITA        PTCLDY    35  17  47 NW14      30.21F WCI  26
OMAHA          CLOUDY    25  18  74 N8        30.10S WCI  16
LINCOLN        CLOUDY    32  21  64 NW13      30.14R WCI  22
FALLS CITY     PTCLDY    28  19  69 NW9       30.11S WCI  19
LAMONI         CLOUDY    21  12  68 N18G28    30.01F WCI   6
DES MOINES     FLURRIES  20  10  65 N18G28    30.00F WCI   5

$$





USA.gov is the U.S. government's official web portal to all federal, state and local government web resources and services.